This demonstration page uses our WeatherBlox Daily Observations layout. Learn more.

Hourly Observations for August 14, 2016

Temp ( °F °C ) Dew Point ( °F °C ) Humidity (%) Winds ( mph kmh ) Pressure ( in mb ) Visibility ( mi km ) Precip ( " mm )
12:15 am 00:15 Cloudy with Light Thunderstorms 61 16 56 13.3 84 84 WSW 8 13 30.12 1020 10 16.09344 0.05 1.27
12:35 am 00:35 Cloudy 61 16.3 57 14 86 86 WSW 7 11 30.12 1020 10 16.09344 0.06 1.524
12:55 am 00:55 Partly Cloudy with Light Rain 62 16.7 57 13.9 84 84 WSW 10 17 30.09 1019 10 16.09344 0.06 1.524
1:15 am 01:15 Clear with Light Rain 62 16.8 58 14.5 86 86 NE 6 9 30.09 1019 10 16.09344 0 0
1:35 am 01:35 Clear 62 16.5 58 14.5 88 88 N 6 9 30.09 1019 10 16.09344 0 0
1:55 am 01:55 Clear 62 16.4 58 14.7 90 90 N 7 11 30.06 1018 10 16.09344 0 0
2:15 am 02:15 Partly Cloudy 62 16.9 58 14.7 87 87 N 7 11 30.06 1018 10 16.09344 0 0
2:35 am 02:35 Mostly Cloudy 64 17.6 57 14.1 80 80 NNW 6 9 30.03 1017 10 16.09344 0 0
2:55 am 02:55 Partly Cloudy 62 16.6 58 14.5 88 88 NE 10 17 30.06 1018 10 16.09344 0 0
3:15 am 03:15 Clear 61 16.2 58 14.6 90 90 Calm 30.06 1018 10 16.09344 0 0
3:35 am 03:35 Clear 61 16 58 14.5 91 91 SE 3 6 30.06 1018 10 16.09344 0 0
3:55 am 03:55 Clear 61 16.2 58 14.6 90 90 WNW 3 6 30.06 1018 10 16.09344 0 0
4:15 am 04:15 Clear 59 15.2 57 14 93 93 W 3 6 30.06 1018 10 16.09344 0 0
4:35 am 04:35 Clear 59 15.2 57 14.1 93 93 Calm 30.06 1018 10 16.09344 0 0
4:55 am 04:55 Partly Cloudy 59 15 57 14 94 94 Calm 30.06 1018 10 16.09344 0 0
5:15 am 05:15 Partly Cloudy 60 15.3 58 14.3 94 94 Calm 30.09 1019 10 16.09344 0 0
5:35 am 05:35 Clear 59 15.1 57 14 93 93 Calm 30.06 1018 10 16.09344 0 0
5:55 am 05:55 Clear 59 14.8 57 13.8 94 94 Calm 30.06 1018 10 16.09344 0 0
6:15 am 06:15 Clear 58 14.6 56 13.6 94 94 Calm 30.09 1019 10 16.09344 0 0
6:35 am 06:35 Clear 58 14.5 56 13.5 94 94 Calm 30.06 1018 10 16.09344 0 0
6:55 am 06:55 Sunny 58 14.3 56 13.4 94 94 Calm 30.12 1020 10 16.09344 0 0
7:15 am 07:15 Sunny 58 14.3 56 13.5 95 95 Calm 30.12 1020 10 16.09344 0 0
7:35 am 07:35 Sunny 59 15 58 14.2 95 95 Calm 30.09 1019 7 11.265408 0 0
7:55 am 07:55 Sunny 60 15.8 59 15 95 95 Calm 30.09 1019 10 16.09344 0 0
8:15 am 08:15 Sunny 62 16.5 60 15.3 93 93 Calm 30.09 1019 10 16.09344 0 0
8:35 am 08:35 Sunny 63 17.3 60 15.7 90 90 Calm 30.09 1019 10 16.09344 0 0
8:55 am 08:55 Sunny 65 18.2 61 15.9 87 87 Calm 30.06 1018 10 16.09344 0 0
9:15 am 09:15 Sunny 67 19.2 61 16.1 82 82 Calm 30.06 1018 10 16.09344 0.01 0.254
9:35 am 09:35 Sunny 68 20.2 62 16.6 80 80 Calm 30.06 1018 10 16.09344 0.01 0.254
9:55 am 09:55 Sunny 70 21.2 62 16.9 77 77 E 3 6 30.03 1017 10 16.09344 0.01 0.254
10:15 am 10:15 Sunny 72 22.2 62 16.5 70 70 SE 6 9 30.03 1017 10 16.09344 0 0
10:35 am 10:35 Sunny 73 22.7 63 17.1 71 71 SSE 7 11 30.03 1017 10 16.09344 0 0
10:55 am 10:55 Sunny 74 23.4 64 17.9 71 71 SE 8 13 30.03 1017 10 16.09344 0 0
11:15 am 11:15 Sunny 75 24 64 17.8 68 68 SSE 8 13 30.03 1017 10 16.09344 0 0
11:35 am 11:35 Sunny 76 24.2 64 18 68 68 SE 7 11 30.03 1017 10 16.09344 0 0
11:55 am 11:55 Sunny 77 24.8 65 18.4 68 68 SE 10 17 30 1016 10 16.09344 0 0
12:15 pm 12:15 Sunny 78 25.5 65 18.3 64 64 SSE 8 13 30 1016 10 16.09344 0 0
12:35 pm 12:35 Sunny 78 25.8 65 18.4 64 64 SSE 9 15 30 1016 10 16.09344 0 0
12:55 pm 12:55 Sunny 79 26 66 19 65 65 SSE 8 13 29.97 1015 10 16.09344 0 0
1:15 pm 13:15 Sunny 79 26.3 65 18.5 62 62 SE 10 17 29.97 1015 10 16.09344 0 0
1:35 pm 13:35 Sunny 80 26.9 66 19.1 62 62 SE 12 19 29.97 1015 10 16.09344 0 0
1:55 pm 13:55 Sunny 81 27 65 18.1 58 58 SE 9 15 29.97 1015 10 16.09344 0 0
2:15 pm 14:15 Sunny 81 27 65 18.5 60 60 SSE 10 17 29.97 1015 10 16.09344 0 0
2:35 pm 14:35 Partly Cloudy 82 27.9 66 19 58 58 SSE 12 19 29.94 1014 10 16.09344 0 0
2:55 pm 14:55 Partly Cloudy 81 27 64 18 58 58 SSE 9 15 29.97 1015 10 16.09344 0 0
3:15 pm 15:15 Sunny 81 27.1 64 18 58 58 SSE 10 17 29.94 1014 10 16.09344 0 0
3:35 pm 15:35 Sunny 82 27.7 64 17.9 55 55 SSE 12 19 29.91 1013 10 16.09344 0 0
3:55 pm 15:55 Sunny 83 28.1 63 17.1 51 51 SSE 9 15 29.91 1013 10 16.09344 0 0
4:15 pm 16:15 Sunny 82 28 63 17 51 51 SSE 9 15 29.91 1013 10 16.09344 0 0
4:35 pm 16:35 Sunny 83 28.3 64 17.5 52 52 SSE 12 19 29.88 1012 10 16.09344 0 0
4:55 pm 16:55 Sunny 83 28.5 63 17.2 50 50 SE 13 20 29.88 1012 10 16.09344 0 0
5:15 pm 17:15 Sunny 83 28.5 62 16.8 49 49 SE 13 20 29.88 1012 10 16.09344 0 0
5:35 pm 17:35 Sunny 83 28.3 63 17.3 51 51 SSE 15 24 29.88 1012 10 16.09344 0 0
5:55 pm 17:55 Sunny 83 28.2 63 17.2 51 51 SSE 12 19 29.88 1012 10 16.09344 0 0
6:15 pm 18:15 Sunny 83 28.1 63 17 51 51 SE 9 15 29.88 1012 10 16.09344 0 0
6:35 pm 18:35 Sunny 82 28 62 16.8 51 51 SE 12 19 29.88 1012 10 16.09344 0 0
6:55 pm 18:55 Sunny 82 27.6 63 17.1 53 53 SE 9 15 29.88 1012 10 16.09344 0 0
7:15 pm 19:15 Sunny 81 27.1 64 18 58 58 ESE 10 17 29.91 1013 10 16.09344 0 0
7:35 pm 19:35 Sunny 80 26.6 65 18.4 61 61 ESE 8 13 29.91 1013 10 16.09344 0 0
7:55 pm 19:55 Sunny 79 26.1 65 18.1 61 61 SE 9 15 29.91 1013 10 16.09344 0 0
8:15 pm 20:15 Sunny 78 25.5 66 18.7 66 66 SE 7 11 29.91 1013 10 16.09344 0 0
8:35 pm 20:35 Sunny 76 24.5 66 18.7 70 70 SE 8 13 29.91 1013 10 16.09344 0 0
8:55 pm 20:55 Clear 75 23.7 66 19 75 75 SE 7 11 29.91 1013 10 16.09344 0 0
9:15 pm 21:15 Clear 74 23.3 65 18.6 75 75 SE 8 13 29.94 1014 10 16.09344 0 0
9:35 pm 21:35 Clear 74 23.2 65 18.2 74 74 SE 10 17 29.94 1014 10 16.09344 0 0
9:55 pm 21:55 Clear 73 22.7 64 17.8 74 74 SE 8 13 29.94 1014 10 16.09344 0 0
10:15 pm 22:15 Clear 72 22.4 64 17.7 75 75 SE 9 15 29.94 1014 10 16.09344 0 0
10:35 pm 22:35 Clear 72 22.1 63 17.2 74 74 SE 9 15 29.94 1014 10 16.09344 0 0
10:55 pm 22:55 Clear 72 22 62 16.9 73 73 SE 9 15 29.94 1014 10 16.09344 0 0
11:15 pm 23:15 Clear 71 21.5 62 16.8 75 75 SE 9 15 29.94 1014 10 16.09344 0 0
11:35 pm 23:35 Clear 70 21.2 62 16.6 75 75 SSE 9 15 29.94 1014 10 16.09344 0 0
11:55 pm 23:55 Clear 70 21 61 16.1 74 74 SSE 10 17 29.94 1014 10 16.09344 0 0

Powered by AerisWeather